Year,Month,Day,Hour,Minute,Value (Times are PST for temperature in C)
2014,07,28,00,00,18.60
2014,07,28,00,01,18.60
2014,07,28,00,02,18.60
2014,07,28,00,03,18.60
2014,07,28,00,04,18.60
2014,07,28,00,05,18.50
2014,07,28,00,06,18.50
2014,07,28,00,07,18.50
2014,07,28,00,08,18.40
2014,07,28,00,09,18.40
2014,07,28,00,10,18.40
2014,07,28,00,11,18.40
2014,07,28,00,12,18.40
2014,07,28,00,13,18.40
2014,07,28,00,14,18.40
2014,07,28,00,15,18.30
2014,07,28,00,16,18.30
2014,07,28,00,17,18.30
2014,07,28,00,18,18.30
2014,07,28,00,19,18.30
2014,07,28,00,20,18.30
2014,07,28,00,21,18.30
2014,07,28,00,22,18.30
2014,07,28,00,23,18.30
2014,07,28,00,24,18.20
2014,07,28,00,25,18.20
2014,07,28,00,26,18.20
2014,07,28,00,27,18.20
2014,07,28,00,28,18.20
2014,07,28,00,29,18.10
2014,07,28,00,30,18.10
2014,07,28,00,31,18.10
2014,07,28,00,32,18.10
2014,07,28,00,33,18.10
2014,07,28,00,34,18.00
2014,07,28,00,35,18.00
2014,07,28,00,36,18.00
2014,07,28,00,37,18.00
2014,07,28,00,38,17.90
2014,07,28,00,39,17.90
2014,07,28,00,40,17.90
2014,07,28,00,41,17.90
2014,07,28,00,42,17.80
2014,07,28,00,43,17.80
2014,07,28,00,44,17.80
2014,07,28,00,45,17.80
2014,07,28,00,46,17.80
2014,07,28,00,47,17.70
2014,07,28,00,48,17.70
2014,07,28,00,49,17.70
2014,07,28,00,50,17.70
2014,07,28,00,51,17.70
2014,07,28,00,52,17.70
2014,07,28,00,53,17.60
2014,07,28,00,54,17.60
2014,07,28,00,55,17.60
2014,07,28,00,56,17.60
2014,07,28,00,57,17.60
2014,07,28,00,58,17.60
2014,07,28,00,59,17.50
2014,07,28,01,00,17.50
2014,07,28,01,01,17.50
2014,07,28,01,02,17.40
2014,07,28,01,03,17.40
2014,07,28,01,04,17.40
2014,07,28,01,05,17.40
2014,07,28,01,06,17.40
2014,07,28,01,07,17.40
2014,07,28,01,08,17.40
2014,07,28,01,09,17.40
2014,07,28,01,10,17.40
2014,07,28,01,11,17.40
2014,07,28,01,12,17.30
2014,07,28,01,13,17.40
2014,07,28,01,14,17.30
2014,07,28,01,15,17.30
2014,07,28,01,16,17.30
2014,07,28,01,17,17.30
2014,07,28,01,18,17.30
2014,07,28,01,19,17.30
2014,07,28,01,20,17.30
2014,07,28,01,21,17.30
2014,07,28,01,22,17.30
2014,07,28,01,23,17.30
2014,07,28,01,24,17.30
2014,07,28,01,25,17.30
2014,07,28,01,26,17.30
2014,07,28,01,27,17.20
2014,07,28,01,28,17.20
2014,07,28,01,29,17.20
2014,07,28,01,30,17.20
2014,07,28,01,31,17.20
2014,07,28,01,32,17.20
2014,07,28,01,33,17.20
2014,07,28,01,34,17.20
2014,07,28,01,35,17.20
2014,07,28,01,36,17.10
2014,07,28,01,37,17.10
2014,07,28,01,38,17.10
2014,07,28,01,39,17.10
2014,07,28,01,40,17.10
2014,07,28,01,41,17.00
2014,07,28,01,42,17.00
2014,07,28,01,43,17.00
2014,07,28,01,44,16.90
2014,07,28,01,45,16.90
2014,07,28,01,46,16.90
2014,07,28,01,47,16.90
2014,07,28,01,48,16.90
2014,07,28,01,49,16.80
2014,07,28,01,50,16.80
2014,07,28,01,51,16.80
2014,07,28,01,52,16.80
2014,07,28,01,53,16.80
2014,07,28,01,54,16.80
2014,07,28,01,55,16.80
2014,07,28,01,56,16.80
2014,07,28,01,57,16.80
2014,07,28,01,58,16.80
2014,07,28,01,59,16.70
2014,07,28,02,00,16.70
2014,07,28,02,01,16.70
2014,07,28,02,02,16.70
2014,07,28,02,03,16.70
2014,07,28,02,04,16.70
2014,07,28,02,05,16.70
2014,07,28,02,06,16.70
2014,07,28,02,07,16.70
2014,07,28,02,08,16.70
2014,07,28,02,09,16.70
2014,07,28,02,10,16.70
2014,07,28,02,11,16.70
2014,07,28,02,12,16.60
2014,07,28,02,13,16.60
2014,07,28,02,14,16.60
2014,07,28,02,15,16.60
2014,07,28,02,16,16.60
2014,07,28,02,17,16.60
2014,07,28,02,18,16.60
2014,07,28,02,19,16.60
2014,07,28,02,20,16.50
2014,07,28,02,21,16.50
2014,07,28,02,22,16.50
2014,07,28,02,23,16.50
2014,07,28,02,24,16.40
2014,07,28,02,25,16.40
2014,07,28,02,26,16.40
2014,07,28,02,27,16.40
2014,07,28,02,28,16.40
2014,07,28,02,29,16.40
2014,07,28,02,30,16.40
2014,07,28,02,31,16.30
2014,07,28,02,32,16.30
2014,07,28,02,33,16.30
2014,07,28,02,34,16.30
2014,07,28,02,35,16.30
2014,07,28,02,36,16.30
2014,07,28,02,37,16.30
2014,07,28,02,38,16.30
2014,07,28,02,39,16.30
2014,07,28,02,40,16.30
2014,07,28,02,41,16.20
2014,07,28,02,42,16.20
2014,07,28,02,43,16.20
2014,07,28,02,44,16.20
2014,07,28,02,45,16.20
2014,07,28,02,46,16.20
2014,07,28,02,47,16.20
2014,07,28,02,48,16.20
2014,07,28,02,49,16.20
2014,07,28,02,50,16.20
2014,07,28,02,51,16.10
2014,07,28,02,52,16.10
2014,07,28,02,53,16.10
2014,07,28,02,54,16.10
2014,07,28,02,55,16.10
2014,07,28,02,56,16.10
2014,07,28,02,57,16.10
2014,07,28,02,58,16.10
2014,07,28,02,59,16.10
2014,07,28,03,00,16.10
2014,07,28,03,01,16.10
2014,07,28,03,02,16.10
2014,07,28,03,03,16.10
2014,07,28,03,04,16.10
2014,07,28,03,05,16.10
2014,07,28,03,06,16.10
2014,07,28,03,07,16.10
2014,07,28,03,08,16.10
2014,07,28,03,09,16.10
2014,07,28,03,10,16.10
2014,07,28,03,11,16.10
2014,07,28,03,12,16.10
2014,07,28,03,13,16.10
2014,07,28,03,14,16.10
2014,07,28,03,15,16.20
2014,07,28,03,16,16.20
2014,07,28,03,17,16.20
2014,07,28,03,18,16.20
2014,07,28,03,19,16.20
2014,07,28,03,20,16.30
2014,07,28,03,21,16.30
2014,07,28,03,22,16.30
2014,07,28,03,23,16.30
2014,07,28,03,24,16.30
2014,07,28,03,25,16.40
2014,07,28,03,26,16.40
2014,07,28,03,27,16.40
2014,07,28,03,28,16.40
2014,07,28,03,29,16.40
2014,07,28,03,30,16.40
2014,07,28,03,31,16.40
2014,07,28,03,32,16.40
2014,07,28,03,33,16.40
2014,07,28,03,34,16.40
2014,07,28,03,35,16.40
2014,07,28,03,36,16.50
2014,07,28,03,37,16.50
2014,07,28,03,38,16.50
2014,07,28,03,39,16.50
2014,07,28,03,40,16.50
2014,07,28,03,41,16.60
2014,07,28,03,42,16.60
2014,07,28,03,43,16.60
2014,07,28,03,44,16.60
2014,07,28,03,45,16.60
2014,07,28,03,46,16.60
2014,07,28,03,47,16.70
2014,07,28,03,48,16.70
2014,07,28,03,49,16.70
2014,07,28,03,50,16.70
2014,07,28,03,51,16.70
2014,07,28,03,52,16.70
2014,07,28,03,53,16.70
2014,07,28,03,54,16.70
2014,07,28,03,55,16.80
2014,07,28,03,56,16.80
2014,07,28,03,57,16.80
2014,07,28,03,58,16.80
2014,07,28,03,59,16.80
2014,07,28,04,00,16.80
2014,07,28,04,01,16.80
2014,07,28,04,02,16.80
2014,07,28,04,03,16.80
2014,07,28,04,04,16.80
2014,07,28,04,05,16.80
2014,07,28,04,06,16.80
2014,07,28,04,07,16.80
2014,07,28,04,08,16.80
2014,07,28,04,09,16.80
2014,07,28,04,10,16.80
2014,07,28,04,11,16.80
2014,07,28,04,12,16.70
2014,07,28,04,13,16.70
2014,07,28,04,14,16.70
2014,07,28,04,15,16.60
2014,07,28,04,16,16.60
2014,07,28,04,17,16.60
2014,07,28,04,18,16.60
2014,07,28,04,19,16.50
2014,07,28,04,20,16.50
2014,07,28,04,21,16.50
2014,07,28,04,22,16.40
2014,07,28,04,23,16.40
2014,07,28,04,24,16.40
2014,07,28,04,25,16.40
2014,07,28,04,26,16.40
2014,07,28,04,27,16.30
2014,07,28,04,28,16.30
2014,07,28,04,29,16.30
2014,07,28,04,30,16.30
2014,07,28,04,31,16.20
2014,07,28,04,32,16.20
2014,07,28,04,33,16.20
2014,07,28,04,34,16.20
2014,07,28,04,35,16.10
2014,07,28,04,36,16.10
2014,07,28,04,37,16.10
2014,07,28,04,38,16.10
2014,07,28,04,39,16.10
2014,07,28,04,40,16.00
2014,07,28,04,41,16.00
2014,07,28,04,42,15.90
2014,07,28,04,43,15.90
2014,07,28,04,44,15.90
2014,07,28,04,45,15.80
2014,07,28,04,46,15.80
2014,07,28,04,47,15.80
2014,07,28,04,48,15.80
2014,07,28,04,49,15.70
2014,07,28,04,50,15.70
2014,07,28,04,51,15.70
2014,07,28,04,52,15.70
2014,07,28,04,53,15.70
2014,07,28,04,54,15.70
2014,07,28,04,55,15.60
2014,07,28,04,56,15.60
2014,07,28,04,57,15.60
2014,07,28,04,58,15.60
2014,07,28,04,59,15.50
2014,07,28,05,00,15.50
2014,07,28,05,01,15.50
2014,07,28,05,02,15.40
2014,07,28,05,03,15.40
2014,07,28,05,04,15.40
2014,07,28,05,05,15.40
2014,07,28,05,06,15.40
2014,07,28,05,07,15.40
2014,07,28,05,08,15.30
2014,07,28,05,09,15.30
2014,07,28,05,10,15.30
2014,07,28,05,11,15.30
2014,07,28,05,12,15.20
2014,07,28,05,13,15.20
2014,07,28,05,14,15.20
2014,07,28,05,15,15.20
2014,07,28,05,16,15.10
2014,07,28,05,17,15.10
2014,07,28,05,18,15.10
2014,07,28,05,19,15.10
2014,07,28,05,20,15.10
2014,07,28,05,21,15.00
2014,07,28,05,22,15.00
2014,07,28,05,23,15.00
2014,07,28,05,24,14.90
2014,07,28,05,25,14.90
2014,07,28,05,26,14.90
2014,07,28,05,27,14.90
2014,07,28,05,28,14.80
2014,07,28,05,29,14.80
2014,07,28,05,30,14.80
2014,07,28,05,31,14.80
2014,07,28,05,32,14.80
2014,07,28,05,33,14.80
2014,07,28,05,34,14.70
2014,07,28,05,35,14.70
2014,07,28,05,36,14.70
2014,07,28,05,37,14.70
2014,07,28,05,38,14.70
2014,07,28,05,39,14.70
2014,07,28,05,40,14.70
2014,07,28,05,41,14.70
2014,07,28,05,42,14.70
2014,07,28,05,43,14.70
2014,07,28,05,44,14.70
2014,07,28,05,45,14.70
2014,07,28,05,46,14.70
2014,07,28,05,47,14.70
2014,07,28,05,48,14.70
2014,07,28,05,49,14.70
2014,07,28,05,50,14.70
2014,07,28,05,51,14.70
2014,07,28,05,52,14.80
2014,07,28,05,53,14.80
2014,07,28,05,54,14.80
2014,07,28,05,55,14.80
2014,07,28,05,56,14.80
2014,07,28,05,57,14.80
2014,07,28,05,58,14.80
2014,07,28,05,59,14.80
2014,07,28,06,00,14.80
2014,07,28,06,01,14.80
2014,07,28,06,02,14.90
2014,07,28,06,03,14.90
2014,07,28,06,04,14.90
2014,07,28,06,05,14.90
2014,07,28,06,06,14.90
2014,07,28,06,07,15.00
2014,07,28,06,08,15.00
2014,07,28,06,09,15.00
2014,07,28,06,10,15.00
2014,07,28,06,11,15.10
2014,07,28,06,12,15.10
2014,07,28,06,13,15.10
2014,07,28,06,14,15.20
2014,07,28,06,15,15.20
2014,07,28,06,16,15.20
2014,07,28,06,17,15.30
2014,07,28,06,18,15.30
2014,07,28,06,19,15.30
2014,07,28,06,20,15.30
2014,07,28,06,21,15.30
2014,07,28,06,22,15.30
2014,07,28,06,23,15.30
2014,07,28,06,24,15.40
2014,07,28,06,25,15.40
2014,07,28,06,26,15.40
2014,07,28,06,27,15.40
2014,07,28,06,28,15.40
2014,07,28,06,29,15.40
2014,07,28,06,30,15.40
2014,07,28,06,31,15.40
2014,07,28,06,32,15.40
2014,07,28,06,33,15.40
2014,07,28,06,34,15.40
2014,07,28,06,35,15.40
2014,07,28,06,36,15.40
2014,07,28,06,37,15.40
2014,07,28,06,38,15.40
2014,07,28,06,39,15.50
2014,07,28,06,40,15.50
2014,07,28,06,41,15.50
2014,07,28,06,42,15.50
2014,07,28,06,43,15.50
2014,07,28,06,44,15.60
2014,07,28,06,45,15.60
2014,07,28,06,46,15.60
2014,07,28,06,47,15.60
2014,07,28,06,48,15.70
2014,07,28,06,49,15.70
2014,07,28,06,50,15.70
2014,07,28,06,51,15.70
2014,07,28,06,52,15.80
2014,07,28,06,53,15.80
2014,07,28,06,54,15.80
2014,07,28,06,55,15.90
2014,07,28,06,56,15.90
2014,07,28,06,57,15.90
2014,07,28,06,58,16.00
2014,07,28,06,59,16.10
2014,07,28,07,00,16.10
2014,07,28,07,01,16.10
2014,07,28,07,02,16.20
2014,07,28,07,03,16.20
2014,07,28,07,04,16.30
2014,07,28,07,05,16.30
2014,07,28,07,06,16.30
2014,07,28,07,07,16.40
2014,07,28,07,08,16.40
2014,07,28,07,09,16.50
2014,07,28,07,10,16.50
2014,07,28,07,11,16.60
2014,07,28,07,12,16.60
2014,07,28,07,13,16.70
2014,07,28,07,14,16.70
2014,07,28,07,15,16.70
2014,07,28,07,16,16.80
2014,07,28,07,17,16.90
2014,07,28,07,18,16.90
2014,07,28,07,19,17.00
2014,07,28,07,20,17.00
2014,07,28,07,21,17.10
2014,07,28,07,22,17.20
2014,07,28,07,23,17.20
2014,07,28,07,24,17.30
2014,07,28,07,25,17.30
2014,07,28,07,26,17.30
2014,07,28,07,27,17.40
2014,07,28,07,28,17.40
2014,07,28,07,29,17.50
2014,07,28,07,30,17.50
2014,07,28,07,31,17.60
2014,07,28,07,32,17.60
2014,07,28,07,33,17.70
2014,07,28,07,34,17.70
2014,07,28,07,35,17.70
2014,07,28,07,36,17.80
2014,07,28,07,37,17.90
2014,07,28,07,38,17.90
2014,07,28,07,39,18.00
2014,07,28,07,40,18.00
2014,07,28,07,41,18.10
2014,07,28,07,42,18.10
2014,07,28,07,43,18.20
2014,07,28,07,44,18.30
2014,07,28,07,45,18.30
2014,07,28,07,46,18.40
2014,07,28,07,47,18.50
2014,07,28,07,48,18.60
2014,07,28,07,49,18.60
2014,07,28,07,50,18.70
2014,07,28,07,51,18.80
2014,07,28,07,52,18.90
2014,07,28,07,53,18.90
2014,07,28,07,54,19.00
2014,07,28,07,55,19.10
2014,07,28,07,56,19.20
2014,07,28,07,57,19.30
2014,07,28,07,58,19.40
2014,07,28,07,59,19.40
2014,07,28,08,00,19.50
2014,07,28,08,01,19.60
2014,07,28,08,02,19.70
2014,07,28,08,03,19.80
2014,07,28,08,04,19.90
2014,07,28,08,05,20.00
2014,07,28,08,06,20.00
2014,07,28,08,07,20.10
2014,07,28,08,08,20.20
2014,07,28,08,09,20.20
2014,07,28,08,10,20.30
2014,07,28,08,11,20.40
2014,07,28,08,12,20.40
2014,07,28,08,13,20.50
2014,07,28,08,14,20.50
2014,07,28,08,15,20.60
2014,07,28,08,16,20.70
2014,07,28,08,17,20.70
2014,07,28,08,18,20.80
2014,07,28,08,19,20.80
2014,07,28,08,20,20.90
2014,07,28,08,21,20.90
2014,07,28,08,22,21.00
2014,07,28,08,23,21.00
2014,07,28,08,24,21.10
2014,07,28,08,25,21.10
2014,07,28,08,26,21.20
2014,07,28,08,27,21.20
2014,07,28,08,28,21.30
2014,07,28,08,29,21.30
2014,07,28,08,30,21.40
2014,07,28,08,31,21.40
2014,07,28,08,32,21.50
2014,07,28,08,33,21.50
2014,07,28,08,34,21.60
2014,07,28,08,35,21.60
2014,07,28,08,36,21.70
2014,07,28,08,37,21.70
2014,07,28,08,38,21.70
2014,07,28,08,39,21.70
2014,07,28,08,40,21.70
2014,07,28,08,41,21.70
2014,07,28,08,42,21.70
2014,07,28,08,43,21.70
2014,07,28,08,44,21.70
2014,07,28,08,45,21.80
2014,07,28,08,46,21.80
2014,07,28,08,47,21.80
2014,07,28,08,48,21.90
2014,07,28,08,49,21.90
2014,07,28,08,50,21.90
2014,07,28,08,51,21.90
2014,07,28,08,52,21.90
2014,07,28,08,53,21.90
2014,07,28,08,54,21.90
2014,07,28,08,55,21.90
2014,07,28,08,56,21.80
2014,07,28,08,57,21.80
2014,07,28,08,58,21.80
2014,07,28,08,59,21.80
2014,07,28,09,00,21.80
2014,07,28,09,01,21.80
2014,07,28,09,02,21.80
2014,07,28,09,03,21.90
2014,07,28,09,04,21.90
2014,07,28,09,05,21.90
2014,07,28,09,06,21.90
2014,07,28,09,07,21.80
2014,07,28,09,08,21.80
2014,07,28,09,09,21.80
2014,07,28,09,10,21.70
2014,07,28,09,11,21.70
2014,07,28,09,12,21.60
2014,07,28,09,13,21.60
2014,07,28,09,14,21.60
2014,07,28,09,15,21.60
2014,07,28,09,16,21.60
2014,07,28,09,17,21.50
2014,07,28,09,18,21.50
2014,07,28,09,19,21.60
2014,07,28,09,20,21.60
2014,07,28,09,21,21.70
2014,07,28,09,22,21.70
2014,07,28,09,23,21.80
2014,07,28,09,24,21.80
2014,07,28,09,25,21.80
2014,07,28,09,26,21.80
2014,07,28,09,27,21.90
2014,07,28,09,28,21.90
2014,07,28,09,29,21.90
2014,07,28,09,30,21.90
2014,07,28,09,31,21.90
2014,07,28,09,32,22.00
2014,07,28,09,33,21.90
2014,07,28,09,34,21.90
2014,07,28,09,35,21.90
2014,07,28,09,36,21.90
2014,07,28,09,37,22.00
2014,07,28,09,38,22.00
2014,07,28,09,39,22.00
2014,07,28,09,40,22.10
2014,07,28,09,41,22.10
2014,07,28,09,42,22.10
2014,07,28,09,43,22.10
2014,07,28,09,44,22.10
2014,07,28,09,45,22.10
2014,07,28,09,46,22.10
2014,07,28,09,47,22.00
2014,07,28,09,48,22.00
2014,07,28,09,49,22.00
2014,07,28,09,50,21.90
2014,07,28,09,51,21.90
2014,07,28,09,52,21.90
2014,07,28,09,53,21.90
2014,07,28,09,54,21.90
2014,07,28,09,55,21.80
2014,07,28,09,56,21.80
2014,07,28,09,57,21.80
2014,07,28,09,58,21.80
2014,07,28,09,59,21.80
2014,07,28,10,00,21.80
2014,07,28,10,01,21.80
2014,07,28,10,02,21.80
2014,07,28,10,03,21.90
2014,07,28,10,04,22.10
2014,07,28,10,05,22.10
2014,07,28,10,06,22.20
2014,07,28,10,07,22.20
2014,07,28,10,08,22.20
2014,07,28,10,09,22.20
2014,07,28,10,10,22.30
2014,07,28,10,11,22.30
2014,07,28,10,12,22.40
2014,07,28,10,13,22.40
2014,07,28,10,14,22.40
2014,07,28,10,15,22.40
2014,07,28,10,16,22.40
2014,07,28,10,17,22.40
2014,07,28,10,18,22.40
2014,07,28,10,19,22.40
2014,07,28,10,20,22.40
2014,07,28,10,21,22.40
2014,07,28,10,22,22.50
2014,07,28,10,23,22.50
2014,07,28,10,24,22.60
2014,07,28,10,25,22.60
2014,07,28,10,26,22.60
2014,07,28,10,27,22.60
2014,07,28,10,28,22.60
2014,07,28,10,29,22.60
2014,07,28,10,30,22.60
2014,07,28,10,31,22.60
2014,07,28,10,32,22.60
2014,07,28,10,33,22.60
2014,07,28,10,34,22.60
2014,07,28,10,35,22.70
2014,07,28,10,36,22.70
2014,07,28,10,37,22.80
2014,07,28,10,38,22.90
2014,07,28,10,39,22.90
2014,07,28,10,40,23.00
2014,07,28,10,41,23.00
2014,07,28,10,42,23.00
2014,07,28,10,43,23.10
2014,07,28,10,44,23.20
2014,07,28,10,45,23.20
2014,07,28,10,46,23.20
2014,07,28,10,47,23.30
2014,07,28,10,48,23.40
2014,07,28,10,49,23.40
2014,07,28,10,50,23.50
2014,07,28,10,51,23.50
2014,07,28,10,52,23.50
2014,07,28,10,53,23.60
2014,07,28,10,54,23.60
2014,07,28,10,55,23.60
2014,07,28,10,56,23.50
2014,07,28,10,57,23.60
2014,07,28,10,58,23.60
2014,07,28,10,59,23.60
2014,07,28,11,00,23.60
2014,07,28,11,01,23.70
2014,07,28,11,02,23.60
2014,07,28,11,03,23.60
2014,07,28,11,04,23.60
2014,07,28,11,05,23.60
2014,07,28,11,06,23.60
2014,07,28,11,07,23.60
2014,07,28,11,08,23.70
2014,07,28,11,09,23.70
2014,07,28,11,10,23.70
2014,07,28,11,11,23.70
2014,07,28,11,12,23.70
2014,07,28,11,13,23.70
2014,07,28,11,14,23.80
2014,07,28,11,15,23.90
2014,07,28,11,16,24.00
2014,07,28,11,17,24.10
2014,07,28,11,18,24.20
2014,07,28,11,19,24.30
2014,07,28,11,20,24.30
2014,07,28,11,21,24.30
2014,07,28,11,22,24.30
2014,07,28,11,23,24.30
2014,07,28,11,24,24.20
2014,07,28,11,25,24.20
2014,07,28,11,26,24.10
2014,07,28,11,27,24.10
2014,07,28,11,28,24.10
2014,07,28,11,29,24.10
2014,07,28,11,30,24.10
2014,07,28,11,31,24.10
2014,07,28,11,32,24.10
2014,07,28,11,33,24.10
2014,07,28,11,34,24.10
2014,07,28,11,35,24.20
2014,07,28,11,36,24.20
2014,07,28,11,37,24.30
2014,07,28,11,38,24.30
2014,07,28,11,39,24.30
2014,07,28,11,40,24.30
2014,07,28,11,41,24.30
2014,07,28,11,42,24.30
2014,07,28,11,43,24.30
2014,07,28,11,44,24.30
2014,07,28,11,45,24.30
2014,07,28,11,46,24.30
2014,07,28,11,47,24.30
2014,07,28,11,48,24.40
2014,07,28,11,49,24.60
2014,07,28,11,50,24.70
2014,07,28,11,51,24.80
2014,07,28,11,52,24.80
2014,07,28,11,53,24.90
2014,07,28,11,54,25.00
2014,07,28,11,55,25.10
2014,07,28,11,56,25.20
2014,07,28,11,57,25.30
2014,07,28,11,58,25.40
2014,07,28,11,59,25.50
2014,07,28,12,00,25.50
2014,07,28,12,01,25.60
2014,07,28,12,02,25.50
2014,07,28,12,03,25.50
2014,07,28,12,04,25.50
2014,07,28,12,05,25.50
2014,07,28,12,06,25.50
2014,07,28,12,07,25.60
2014,07,28,12,08,25.60
2014,07,28,12,09,25.70
2014,07,28,12,10,25.70
2014,07,28,12,11,25.70
2014,07,28,12,12,25.70
2014,07,28,12,13,25.70
2014,07,28,12,14,25.70
2014,07,28,12,15,25.60
2014,07,28,12,16,25.60
2014,07,28,12,17,25.50
2014,07,28,12,18,25.50
2014,07,28,12,19,25.40
2014,07,28,12,20,25.40
2014,07,28,12,21,25.40
2014,07,28,12,22,25.40
2014,07,28,12,23,25.40
2014,07,28,12,24,25.40
2014,07,28,12,25,25.40
2014,07,28,12,26,25.40
2014,07,28,12,27,25.40
2014,07,28,12,28,25.40
2014,07,28,12,29,25.30
2014,07,28,12,30,25.30
2014,07,28,12,31,25.30
2014,07,28,12,32,25.30
2014,07,28,12,33,25.20
2014,07,28,12,34,25.20
2014,07,28,12,35,25.20
2014,07,28,12,36,25.30
2014,07,28,12,37,25.30
2014,07,28,12,38,25.30
2014,07,28,12,39,25.40
2014,07,28,12,40,25.40
2014,07,28,12,41,25.40
2014,07,28,12,42,25.40
2014,07,28,12,43,25.40
2014,07,28,12,44,25.40
2014,07,28,12,45,25.40
2014,07,28,12,46,25.40
2014,07,28,12,47,25.40
2014,07,28,12,48,25.40
2014,07,28,12,49,25.40
2014,07,28,12,50,25.40
2014,07,28,12,51,25.40
2014,07,28,12,52,25.40
2014,07,28,12,53,25.40
2014,07,28,12,54,25.40
2014,07,28,12,55,25.30
2014,07,28,12,56,25.30
2014,07,28,12,57,25.30
2014,07,28,12,58,25.30
2014,07,28,12,59,25.30
2014,07,28,13,00,25.40
2014,07,28,13,01,25.40
2014,07,28,13,02,25.40
2014,07,28,13,03,25.40
2014,07,28,13,04,25.50
2014,07,28,13,05,25.60
2014,07,28,13,06,25.60
2014,07,28,13,07,25.70
2014,07,28,13,08,25.90
2014,07,28,13,09,26.00
2014,07,28,13,10,26.10
2014,07,28,13,11,26.10
2014,07,28,13,12,26.20
2014,07,28,13,13,26.20
2014,07,28,13,14,26.20
2014,07,28,13,15,26.20
2014,07,28,13,16,26.20
2014,07,28,13,17,26.30
2014,07,28,13,18,26.30
2014,07,28,13,19,26.40
2014,07,28,13,20,26.50
2014,07,28,13,21,26.60
2014,07,28,13,22,26.70
2014,07,28,13,23,26.90
2014,07,28,13,24,27.00
2014,07,28,13,25,27.10
2014,07,28,13,26,27.10
2014,07,28,13,27,27.10
2014,07,28,13,28,27.10
2014,07,28,13,29,27.10
2014,07,28,13,30,27.00
2014,07,28,13,31,27.00
2014,07,28,13,32,26.90
2014,07,28,13,33,26.80
2014,07,28,13,34,26.80
2014,07,28,13,35,26.80
2014,07,28,13,36,26.80
2014,07,28,13,37,26.80
2014,07,28,13,38,26.70
2014,07,28,13,39,26.70
2014,07,28,13,40,26.60
2014,07,28,13,41,26.60
2014,07,28,13,42,26.60
2014,07,28,13,43,26.70
2014,07,28,13,44,26.70
2014,07,28,13,45,26.70
2014,07,28,13,46,26.80
2014,07,28,13,47,27.00
2014,07,28,13,48,27.10
2014,07,28,13,49,27.10
2014,07,28,13,50,27.10
2014,07,28,13,51,27.00
2014,07,28,13,52,27.00
2014,07,28,13,53,27.00
2014,07,28,13,54,27.00
2014,07,28,13,55,27.10
2014,07,28,13,56,27.30
2014,07,28,13,57,27.50
2014,07,28,13,58,27.60
2014,07,28,13,59,27.60
2014,07,28,14,00,27.50
2014,07,28,14,01,27.40
2014,07,28,14,02,27.30
2014,07,28,14,03,27.20
2014,07,28,14,04,27.10
2014,07,28,14,05,27.00
2014,07,28,14,06,26.90
2014,07,28,14,07,26.80
2014,07,28,14,08,26.70
2014,07,28,14,09,26.60
2014,07,28,14,10,26.60
2014,07,28,14,11,26.50
2014,07,28,14,12,26.50
2014,07,28,14,13,26.40
2014,07,28,14,14,26.40
2014,07,28,14,15,26.40
2014,07,28,14,16,26.30
2014,07,28,14,17,26.40
2014,07,28,14,18,26.40
2014,07,28,14,19,26.40
2014,07,28,14,20,26.40
2014,07,28,14,21,26.40
2014,07,28,14,22,26.50
2014,07,28,14,23,26.40
2014,07,28,14,24,26.40
2014,07,28,14,25,26.40
2014,07,28,14,26,26.40
2014,07,28,14,27,26.40
2014,07,28,14,28,26.40
2014,07,28,14,29,26.40
2014,07,28,14,30,26.40
2014,07,28,14,31,26.50
2014,07,28,14,32,26.50
2014,07,28,14,33,26.60
2014,07,28,14,34,26.70
2014,07,28,14,35,26.60
2014,07,28,14,36,26.60
2014,07,28,14,37,26.60
2014,07,28,14,38,26.60
2014,07,28,14,39,26.60
2014,07,28,14,40,26.60
2014,07,28,14,41,26.50
2014,07,28,14,42,26.40
2014,07,28,14,43,26.40
2014,07,28,14,44,26.40
2014,07,28,14,45,26.40
2014,07,28,14,46,26.40
2014,07,28,14,47,26.40
2014,07,28,14,48,26.30
2014,07,28,14,49,26.30
2014,07,28,14,50,26.30
2014,07,28,14,51,26.40
2014,07,28,14,52,26.40
2014,07,28,14,53,26.40
2014,07,28,14,54,26.40
2014,07,28,14,55,26.40
2014,07,28,14,56,26.50
2014,07,28,14,57,26.50
2014,07,28,14,58,26.60
2014,07,28,14,59,26.60
2014,07,28,15,00,26.60
2014,07,28,15,01,26.50
2014,07,28,15,02,26.50
2014,07,28,15,03,26.60
2014,07,28,15,04,26.60
2014,07,28,15,05,26.70
2014,07,28,15,06,26.70
2014,07,28,15,07,26.80
2014,07,28,15,08,26.80
2014,07,28,15,09,26.90
2014,07,28,15,10,26.80
2014,07,28,15,11,26.80
2014,07,28,15,12,26.70
2014,07,28,15,13,26.70
2014,07,28,15,14,26.60
2014,07,28,15,15,26.50
2014,07,28,15,16,26.40
2014,07,28,15,17,26.40
2014,07,28,15,18,26.30
2014,07,28,15,19,26.20
2014,07,28,15,20,26.20
2014,07,28,15,21,26.10
2014,07,28,15,22,26.10
2014,07,28,15,23,26.10
2014,07,28,15,24,26.20
2014,07,28,15,25,26.20
2014,07,28,15,26,26.30
2014,07,28,15,27,26.30
2014,07,28,15,28,26.20
2014,07,28,15,29,26.20
2014,07,28,15,30,26.10
2014,07,28,15,31,26.10
2014,07,28,15,32,26.10
2014,07,28,15,33,26.00
2014,07,28,15,34,25.90
2014,07,28,15,35,25.90
2014,07,28,15,36,25.80
2014,07,28,15,37,25.70
2014,07,28,15,38,25.70
2014,07,28,15,39,25.70
2014,07,28,15,40,25.70
2014,07,28,15,41,25.70
2014,07,28,15,42,25.70
2014,07,28,15,43,25.70
2014,07,28,15,44,25.70
2014,07,28,15,45,25.70
2014,07,28,15,46,25.70
2014,07,28,15,47,25.60
2014,07,28,15,48,25.60
2014,07,28,15,49,25.50
2014,07,28,15,50,25.50
2014,07,28,15,51,25.40
2014,07,28,15,52,25.40
2014,07,28,15,53,25.40
2014,07,28,15,54,25.30
2014,07,28,15,55,25.30
2014,07,28,15,56,25.40
2014,07,28,15,57,25.40
2014,07,28,15,58,25.40
2014,07,28,15,59,25.30
2014,07,28,16,00,25.20
2014,07,28,16,01,25.20
2014,07,28,16,02,25.20
2014,07,28,16,03,25.20
2014,07,28,16,04,25.20
2014,07,28,16,05,25.20
2014,07,28,16,06,25.20
2014,07,28,16,07,25.20
2014,07,28,16,08,25.20
2014,07,28,16,09,25.20
2014,07,28,16,10,25.20
2014,07,28,16,11,25.30
2014,07,28,16,12,25.40
2014,07,28,16,13,25.50
2014,07,28,16,14,25.60
2014,07,28,16,15,25.70
2014,07,28,16,16,25.90
2014,07,28,16,17,26.00
2014,07,28,16,18,26.10
2014,07,28,16,19,26.20
2014,07,28,16,20,26.20
2014,07,28,16,21,26.20
2014,07,28,16,22,26.20
2014,07,28,16,23,26.20
2014,07,28,16,24,26.30
2014,07,28,16,25,26.30
2014,07,28,16,26,26.40
2014,07,28,16,27,26.40
2014,07,28,16,28,26.40
2014,07,28,16,29,26.40
2014,07,28,16,30,26.40
2014,07,28,16,31,26.40
2014,07,28,16,32,26.40
2014,07,28,16,33,26.40
2014,07,28,16,34,26.40
2014,07,28,16,35,26.40
2014,07,28,16,36,26.50
2014,07,28,16,37,26.50
2014,07,28,16,38,26.60
2014,07,28,16,39,26.60
2014,07,28,16,40,26.70
2014,07,28,16,41,26.70
2014,07,28,16,42,26.80
2014,07,28,16,43,26.80
2014,07,28,16,44,26.80
2014,07,28,16,45,26.80
2014,07,28,16,46,26.80
2014,07,28,16,47,26.80
2014,07,28,16,48,26.80
2014,07,28,16,49,26.80
2014,07,28,16,50,26.80
2014,07,28,16,51,26.80
2014,07,28,16,52,26.80
2014,07,28,16,53,26.90
2014,07,28,16,54,26.90
2014,07,28,16,55,27.00
2014,07,28,16,56,27.00
2014,07,28,16,57,27.10
2014,07,28,16,58,27.10
2014,07,28,16,59,27.10
2014,07,28,17,00,27.10
2014,07,28,17,01,27.10
2014,07,28,17,02,27.10
2014,07,28,17,03,27.00
2014,07,28,17,04,27.00
2014,07,28,17,05,27.00
2014,07,28,17,06,26.90
2014,07,28,17,07,26.90
2014,07,28,17,08,26.90
2014,07,28,17,09,26.90
2014,07,28,17,10,27.00
2014,07,28,17,11,27.00
2014,07,28,17,12,27.00
2014,07,28,17,13,27.00
2014,07,28,17,14,27.00
2014,07,28,17,15,27.00
2014,07,28,17,16,27.00
2014,07,28,17,17,27.00
2014,07,28,17,18,27.00
2014,07,28,17,19,27.00